Regional Weather Roundup
Issued by NWS

Home | Current Version | Previous Version | Graphics & Text | Print | Product List | Glossary On
Versions: 1 2 3 4 5 6 7 8 9 10 11 12 13 14 15 16 17 18 19 20 21 22 23 24 25 26 27 28 29 30 31 32 33 34 35 36 37 38 39 40 41 42 43 44 45 46 47 48 49 50
246
ASUS43 KIND 032159
RWRIN

WEATHER ROUNDUP FOR INDIANA
NATIONAL WEATHER SERVICE INDIANAPOLIS IN
500 PM EST SAT DEC 03 2016

NOTE: "FAIR" INDICATES FEW OR NO CLOUDS BELOW 12,000 FEET WITH NO
SIGNIFICANT WEATHER AND/OR OBSTRUCTIONS TO VISIBILITY.

* - STATION DOES NOT REPORT WEATHER SUCH AS PRECIPITATION OR FOG.

+ - STATION NOT QUALITY CONTROLLED BY THE NATIONAL WEATHER SERVICE.
    USE DATA WITH CAUTION...ESPECIALLY DEWPOINT AND RELATIVE
    HUMIDITY OBSERVATIONS.

INZ001>003-010>013-019-020-032300-
NORTHWEST INDIANA

CITY           SKY/WX    TMP DP  RH WIND       PRES   REMARKS

$$

LMZ046-743>745-032300-
SOUTHERN LAKE MICHIGAN

STATION/POSITION TIME  TEMP    WIND        PRES    WAVE
                       AIR SEA DIR/SP/G            HT
                 (UTC) (F)     (DEG/KT/KT) (MB)    (FT)
BURNS HARBOR     2140   35     240/  8/ 11 1027.4S
MICHIGAN CITY    2130   35     240/ 12/ 13   N/A

$$

INZ004-005-014>016-021>024-032300-
NORTH CENTRAL INDIANA

CITY           SKY/WX    TMP DP  RH WIND       PRES   REMARKS
ELKHART        CLOUDY    36  25  64 SW6       30.31S
GOSHEN         CLOUDY    36  24  62 SW5       30.31F
SOUTH BEND     CLOUDY    35  25  66 W7        30.32S WCI  29

$$

INZ006>009-017-018-025>027-032300-
NORTHEAST INDIANA

CITY           SKY/WX    TMP DP  RH WIND       PRES   REMARKS
ANGOLA *+      CLOUDY    36  27  69 W5        30.30S
FORT WAYNE     CLOUDY    35  25  66 VRB5      30.32F WCI  31
KENDALLVILLE + CLOUDY    35  25  68 W6        30.31S WCI  30

$$

INZ028-029-035-036-043>045-051>053-032300-
WEST CENTRAL INDIANA

CITY           SKY/WX    TMP DP  RH WIND       PRES   REMARKS
CRAWFORDSVL +  CLOUDY    33  28  79 N5        30.31S WCI  29
GREENCASTLE +  CLOUDY    36  30  80 NW3       30.32S
LAFAYETTE      CLOUDY    34  27  75 CALM      30.32F
TERRE HAUTE    CLOUDY    38  28  67 N6        30.33S

$$

INZ030>032-037>040-046>048-054>057-064-065-032300-
CENTRAL INDIANA

CITY           SKY/WX    TMP DP  RH WIND       PRES   REMARKS
COLUMBUS       PTCLDY    37  32  81 N5        30.32S
INDIANAPOLIS   CLOUDY    37  28  70 N7        30.31S
-EAGLE CREEK   PTCLDY    37  27  67 NW8       30.31S
KOKOMO +       CLOUDY    35  27  72 W8        30.32F WCI  29
SHELBYVILLE    CLOUDY    38  28  67 NW5       30.31S

$$

INZ033-034-041-042-049-050-058-059-032300-
EAST CENTRAL INDIANA

CITY           SKY/WX    TMP DP  RH WIND       PRES   REMARKS
MUNCIE         CLOUDY    37  28  70 W8        30.31S

$$

INZ060-061-067>069-081>083-085>088-032300-
SOUTHWEST INDIANA

CITY           SKY/WX    TMP DP  RH WIND       PRES   REMARKS
EVANSVILLE     CLOUDY    44  30  57 NE5       30.30F
HUNTINGBURG *+ MOCLDY    43  30  61 N5        30.31F

$$

INZ062-063-066-070>080-084-089>092-032300-
SOUTH CENTRAL AND SOUTHEAST INDIANA

CITY           SKY/WX    TMP DP  RH WIND       PRES   REMARKS
BLOOMINGTON    CLOUDY    40  27  59 N5        30.30S
MADISON *+     CLOUDY    41  28  60 CALM      30.32F

$$





USA.gov is the U.S. government's official web portal to all federal, state and local government web resources and services.